Location: Newark
(6.1731°S, 35.7419°E)
Time: 16:29:41
(UTC+00:00)

Altair - Pass Details

Date: 25 February 2020
Orbit: 1501 x 1682 km, 47.2° (Epoch: 04 April)

Event Time Altitude Azimuth Distance (km) Brightness Sun altitude
Rises 16:11:38 0° 198° (SSW) 4,694 10.5 -4.3°
Reaches altitude 10° 16:15:51 10° 182° (S) 3,687 9.7 -5.3°
Maximum altitude 16:22:16 21° 137° (SE) 2,915 8.7 -6.9°
Drops below altitude 10° 16:28:37 10° 92° (E) 3,648 8.8 -8.5°
Enters shadow 16:29:02 - 90° (E) 3,740 8.9 -8.6°
